Regional Weather Roundup
Issued by NWS

Home | Current Version | Previous Version | Text Only | Print | Product List | Glossary On
Versions: 1 2 3 4 5 6 7 8 9 10 11 12 13 14 15 16 17 18 19 20 21 22 23 24 25 26 27 28 29 30 31 32 33 34 35 36 37 38 39 40 41 42 43 44 45 46 47 48 49 50
000
ASUS45 KBOU 231807
RWRCO

WEATHER ROUNDUP FOR COLORADO
NATIONAL WEATHER SERVICE DENVER/BOULDER CO
1200 PM MDT THU MAR 23 2017

NOTE: "FAIR" INDICATES FEW OR NO CLOUDS BELOW 12000 FEET WITH NO
SIGNIFICANT WEATHER AND/OR OBSTRUCTIONS TO VISIBILITY.

COZ001>005-013-030-031-231900-
...NORTHWEST COLORADO...

CITY           SKY/WX    TMP DP  RH WIND       PRES   REMARKS
CRAIG          FAIR      58  26  29 SW15G23   29.72F
HAYDEN         FAIR      57  18  21 SW23G29   29.72F
MEEKER         FAIR      58  24  27 S25G36    29.72F
MOUNT WERNER   NOT AVBL
STEAMBOAT SPGS FAIR      55  20  25 SW12G22   29.72F
WALDEN         NOT AVBL
$$

COZ006>008-011-231900-
...WEST CENTRAL VALLEYS...

CITY           SKY/WX    TMP DP  RH WIND       PRES   REMARKS
GRAND JUNCTION CLOUDY    54  38  54 W3        29.74F
MONTROSE       PTSUNNY   58  29  33 NE10G20   29.73F
EAGLE          MOSUNNY   54  25  32 SW9       29.76F
RIFLE          CLOUDY    56  30  37 W24       29.72F
DELTA          CLOUDY    54  32  42 NW7       29.75F
NUCLA          RAIN      43  34  70 W18G24    29.82F
$$

COZ017>023-064>068-231900-
...SOUTHWEST COLORADO...

CITY           SKY/WX    TMP DP  RH WIND       PRES   REMARKS
DURANGO        CLOUDY    49  30  48 S10       29.81F
CORTEZ         CLOUDY    41  34  76 W17       29.82R
PAGOSA SPRINGS RAIN      44  31  61 SW9       29.85S
TELLURIDE      NOT AVBL
WOLF CREEK PAS SNOW      25  25 100 S17G28    29.96F VSB 1/4 WCI  11
$$

COZ009-010-012-014-032>034-037-058>063-231900-
...CENTRAL COLORADO...

CITY           SKY/WX    TMP DP  RH WIND       PRES   REMARKS
ASPEN          CLOUDY    52  15  23 S18G28    29.74F
BUENA VISTA    PTSUNNY   54  10  17 SE24G30   29.78F
COPPER MTN     NOT AVBL
BERTHOUD PASS  PTSUNNY   32  21  64 SW9G22    29.94S WCI  24
COTTONWOOD PAS CLOUDY    50   7  17 E5        29.85F
GUNNISON       FAIR      50  25  37 SW13G18   29.79F
KREMMLING      FAIR      61  25  25 W13       29.76F
LEADVILLE      PTSUNNY   41  14  33 S13G29    29.84F
MONARCH PASS   FAIR      34  14  44 SW38G49   30.01F WCI  19
SALIDA         FAIR      56  11  17 S20G32    29.86F
SUNLIGHT       PTSUNNY   36  19  51 SW9G22    29.89F
WILKERSON PASS FAIR      43  12  28 S15G29    29.93F
$$

COZ069>075-231900-
...SAN LUIS VALLEY/SANGRE DE CRISTO MOUNTAINS...

CITY           SKY/WX    TMP DP  RH WIND       PRES   REMARKS
ALAMOSA        FAIR      56  22  26 SW22G31   29.81F
LA VETA PASS   NOT AVBL
SAGUACHE       FAIR      55  14  19 SW17G24   29.81F
$$

COZ035-036-038>040-231900-
...NORTHERN COLORADO FRONT RANGE...

CITY           SKY/WX    TMP DP  RH WIND       PRES   REMARKS
DENVER INTL AP FAIR      73  12   9 SW26G35   29.63F
DMNS CITY PARK   N/A     70  11  10 S9G26     29.62F
AURORA         MOSUNNY   71  10   9 SW22G33   29.64F
FRONT RANGE AP MOSUNNY   73  16  11 SW16G23   29.66F
ERIE MUNI ARPT FAIR      73  12   9 S12G21    29.62F
BOULDER MUN AP FAIR      72  19  14 SW8G16    29.61F
CENTENNIAL     FAIR      69  11  10 SW18G26   29.66F
BROOMFIELD     MOSUNNY   72  16  12 SW18G25   29.64F
FORT COLLINS   FAIR      70  29  21 S12       29.63F
LONGMONT       FAIR      75  19  12 E3        29.62F
$$

COZ041-046-047-076>085-087-088-231900-
...PIKES PEAK/PALMER DIVIDE AND SOUTHERN FOOTHILLS...

CITY           SKY/WX    TMP DP  RH WIND       PRES   REMARKS
COLO. SPRINGS  FAIR      67  14  13 SW20G35   29.72F
A. F. ACADEMY  FAIR      65  12  12 SW26G37   29.71F
SCHRIEVER AFB  FAIR      67  16  14 SW23G31   29.74F
ELLICOTT         N/A    N/A N/A N/A W20G32    29.71F
FALCON         FAIR      64  13  13 SW28G35   29.76F
FORT CARSON    FAIR      68  16  13 SW17G36   29.70F
LIMON          FAIR      73  14  10 SW25G35   29.68F
MONUMENT HILL  FAIR      63  14  15 SW20G31   29.75F
TRINIDAD       FAIR      73  14  10 S20G33    29.71F
$$

COZ042>045-048>051-090-091-231900-
...NORTHEAST COLORADO...

CITY           SKY/WX    TMP DP  RH WIND       PRES   REMARKS
GREELEY ARPT   NOT AVBL
AKRON          FAIR      72  26  18 W10       29.65F
BURLINGTON     FAIR      78  36  21 SW18      29.67F
WRAY           NOT AVBL
STERLING       FAIR      59  41  51 W3        29.62F
HOLYOKE        FAIR      72  45  37 CALM      29.63F
FORT MORGAN    FAIR      67  34  29 E6        29.64F
$$

COZ086-089-092>099-231900-
...SOUTHEAST COLORADO...

CITY           SKY/WX    TMP DP  RH WIND       PRES   REMARKS
PUEBLO         FAIR      77  18  11 SW18      29.64F
LA JUNTA       FAIR      79  30  16 VRB6      29.64F
LAMAR          FAIR      77  37  23 N5        29.62F
SPRINGFIELD      N/A     78  36  21 SW18G32   29.71F
$$



USA.gov is the U.S. government's official web portal to all federal, state and local government web resources and services.